TimePDT,TemperatureF,Dew PointF,Humidity,Sea Level PressureIn,VisibilityMPH,Wind Direction,Wind SpeedMPH,Gust SpeedMPH,PrecipitationIn,Events,Conditions,WindDirDegrees,DateUTC
12:53 AM,73.0,51.1,46,29.66,10.0,West,19.6,27.6,N/A,,Clear,260,2013-09-22 07:53:00
1:53 AM,71.1,53.1,53,29.65,10.0,West,21.9,33.4,N/A,,Clear,260,2013-09-22 08:53:00
2:53 AM,72.0,50.0,46,29.64,7.0,West,23.0,29.9,N/A,,Clear,270,2013-09-22 09:53:00
3:53 AM,71.1,48.9,45,29.64,10.0,West,25.3,38.0,N/A,,Clear,270,2013-09-22 10:53:00
4:53 AM,70.0,48.9,47,29.67,10.0,West,20.7,26.5,N/A,,Clear,260,2013-09-22 11:53:00
5:53 AM,69.1,50.0,51,29.69,10.0,West,16.1,25.3,N/A,,Clear,260,2013-09-22 12:53:00
6:53 AM,68.0,48.0,49,29.71,10.0,West,11.5,-,N/A,,Clear,270,2013-09-22 13:53:00
7:53 AM,72.0,48.9,44,29.72,10.0,West,16.1,23.0,N/A,,Clear,280,2013-09-22 14:53:00
8:53 AM,75.0,48.0,38,29.75,10.0,WNW,10.4,16.1,N/A,,Clear,290,2013-09-22 15:53:00
9:53 AM,78.1,45.0,31,29.74,10.0,WNW,16.1,-,N/A,,Clear,290,2013-09-22 16:53:00
10:53 AM,82.0,39.9,22,29.74,10.0,NW,9.2,19.6,N/A,,Clear,310,2013-09-22 17:53:00
11:53 AM,84.9,39.9,20,29.73,10.0,NW,10.4,-,N/A,,Clear,310,2013-09-22 18:53:00
12:53 PM,86.0,37.9,18,29.72,10.0,North,9.2,-,N/A,,Clear,10,2013-09-22 19:53:00
1:53 PM,87.1,33.1,15,29.70,10.0,North,10.4,17.3,N/A,,Clear,360,2013-09-22 20:53:00
2:53 PM,88.0,30.9,13,29.68,10.0,North,10.4,17.3,N/A,,Clear,360,2013-09-22 21:53:00
3:53 PM,88.0,28.9,12,29.67,10.0,NW,6.9,-,N/A,,Clear,310,2013-09-22 22:53:00
4:53 PM,89.1,25.0,10,29.66,10.0,NNW,4.6,-,N/A,,Clear,340,2013-09-22 23:53:00
5:53 PM,88.0,28.0,12,29.66,10.0,North,4.6,-,N/A,,Clear,350,2013-09-23 00:53:00
6:53 PM,84.9,30.9,14,29.67,10.0,Calm,Calm,-,N/A,,Clear,0,2013-09-23 01:53:00
7:53 PM,82.9,30.0,15,29.69,10.0,Calm,Calm,-,N/A,,Clear,0,2013-09-23 02:53:00
8:53 PM,80.1,30.9,17,29.71,10.0,East,4.6,-,N/A,,Clear,80,2013-09-23 03:53:00
9:53 PM,73.0,42.1,33,29.73,10.0,Calm,Calm,-,N/A,,Clear,0,2013-09-23 04:53:00
10:53 PM,75.0,46.0,36,29.74,10.0,Calm,Calm,-,N/A,,Clear,0,2013-09-23 05:53:00
11:53 PM,71.1,42.1,35,29.74,10.0,SW,3.5,-,N/A,,Clear,220,2013-09-23 06:53:00